Terug naar catalogus

STARLINK-2575

ActiefCommunicatieVLEO
NORAD 48396·PAYLOAD·🇺🇸 United States

Gelanceerd May 4, 2021 vanaf Cape Canaveral Space Force Station

Loading…

Volgende Passages (komende 24 uur)

TLE

VersSource: CelesTrak SupGP

Epoch: Sep 14, 2026, 21:16 UTC

1 48396C 21038AV  26257.88659722 -.00023722  00000+0 -76223-3 0  2570
2 48396  53.1606 172.0273 0001569  93.4489 248.7693 15.31739255    14

Volg STARLINK-2575 in realtime met AllMySat

Download on the App Store